Regional Weather Roundup
Issued by NWS Green Bay, WI

Home | Current Version | Previous Version | Graphics & Text | Print | Product List | Glossary Off
Versions: 1 2 3 4 5 6 7 8 9 10 11 12 13 14 15 16 17 18 19 20 21 22 23 24 25 26 27 28 29 30 31 32 33 34 35 36 37 38 39 40 41 42 43 44 45 46 47 48 49 50

000
ASUS43 KGRB 280411
RWRGRB

NORTH-CENTRAL AND NORTHEAST WISCONSIN REGIONAL WEATHER ROUNDUP
NATIONAL WEATHER SERVICE GREEN BAY WI
1100 PM CDT WED APR 27 2016

WIZ005-009-010>012-018-019-280500-
NORTH CENTRAL WISCONSIN

CITY           SKY/WX    TMP DP  RH WIND       PRES   REMARKS
IRONWOOD       MOCLDY    37  14  38 NE12      30.02R
MANITOWISH WTR CLOUDY    37   8  29 NE10      30.01R
ARBOR VITAE    CLOUDY    42   8  25 NE9       29.99S
EAGLE RIVER    CLOUDY    39   6  25 NE8       30.00S
LAND O LAKES   CLOUDY    37   6  27 E7        30.03S
RHINELANDER    CLOUDY    43   9  24 E10G20    29.97F
PHILLIPS       CLOUDY    44  19  36 NE12G20   29.93F
ANTIGO         CLOUDY    41  24  50 NE17      29.91F
TOMAHAWK       CLOUDY    44  10  24 NE14G20   29.92F
MERRILL        CLOUDY    45  25  45 E13G18    29.91F
$$

WIZ013-073-280500-
NORTHEAST WISCONSIN

CITY           SKY/WX    TMP DP  RH WIND       PRES   REMARKS
IRON MOUNTAIN  CLOUDY    35   8  32 N6        30.03R
MARINETTE      CLOUDY    39  19  45 NE10      30.02R
OCONTO         CLOUDY    41  24  51 NE13      29.99F
$$

WIZ017-030-035>037-045-280500-
CENTRAL WISCONSIN

CITY           SKY/WX    TMP DP  RH WIND       PRES   REMARKS
MEDFORD        CLOUDY    43  29  58 S8        29.94R
WAUSAU         CLOUDY    47  18  31 E13G22    29.91R
MOSINEE        CLOUDY    43  18  36 E9        29.95R
MARSHFIELD     CLOUDY    45  20  36 E8        29.91R
WISC RAPIDS    PTCLDY    45  16  31 E12       29.92R
STEVENS POINT  CLOUDY    42  16  34 E9        29.93R
WAUPACA        CLOUDY    46  16  30 E8        29.95R
SHAWANO        CLOUDY    46  24  43 E22G28    29.93F
CLINTONVILLE   CLOUDY    43  19  39 NE17G25   29.91S
WAUTOMA        NOT AVBL
$$

WIZ038-039-048-051-280500-
FOX VALLEY

CITY           SKY/WX    TMP DP  RH WIND       PRES   REMARKS
NWS GREEN BAY  CLOUDY    45  21  38 NE26      29.94F
APPLETON       CLOUDY    45  10  24 E17G33    29.87F
OSHKOSH        CLOUDY    45  17  32 E13G23    29.91R
FOND DU LAC    CLOUDY    45  16  31 NE10      29.91R
$$

WIZ022-050-052-280500-
EAST CENTRAL WISCONSIN

CITY           SKY/WX    TMP DP  RH WIND       PRES   REMARKS
EPHRAIM        FAIR      38  26  61 NE10      30.00S
STURGEON BAY   CLOUDY    39  19  45 NE12      30.02S
MANITOWOC      CLOUDY    42  26  53 MISG      29.94F
SHEBOYGAN      CLOUDY    42  26  53 NE20G35   29.89F
$$

LMZ563-521-522-541>543-280500-
LAKESHORE

STATION/POSITION TIME  TEMP    WIND        PRES    VSBY  WAVE
                       AIR SEA DIR/SP/G                  HT/PER
                 (UTC) (F)     (DEG/KT/KT) (MB)    (MI)  (FT/S)
SHEBOYGAN LKSHOR 0400   42      50/ 28/ 31 1012.4F
KEWAUNEE LKSHORE 0300   42                 1014.5R
ALGOMA MARINA    0315           50/ 21/ 28   N/A
NORTHPORT PIER   0300   40      10/ 10/ 16 1017.3R
N MID LAKE BUOY  0350   38 38   20/ 19/ 23 1016.3R         2/ 3
CHAMBERS ISLAND  0300   40     360/ 17/ 20 1016.6R
MENOMINEE LKSHOR 0300   41                 1014.9R
$$




USA.gov is the U.S. government's official web portal to all federal, state and local government web resources and services.